Flag Weather past 2 weeks in Marl, North Rhine-Westphalia, Germany

Now
55 °F

Clear.


Feels Like: 52 °F
Forecast: 52 / 65 °F
Wind: 13 mph from South

Location: Dortmund / Wickede

Current Time: Oct 31, 2014 at 6:50:11 AM

Latest Report: Oct 31, 2014 at 6:20 AM


Visibility: 10 mi

Pressure: 30.18 "Hg

Humidity: 77%

Dew point: 48 °F

Location of MarlLocation

Historic Weather in Marl — Graph

°F

Marl temperature yesterday

Maximum temperature yesterday: 59 °F (at 2:50 PM)
Minimum temperature yesterday: 50 °F (at 5:20 AM)
Average temperature yesterday: 55 °F

Past Weeks' High & Low Weather Summary

 TemperatureHumidityPressure
High73 °F (Oct 19, 2:20 PM)94% (Oct 25, 8:20 PM)30.30 "Hg (Oct 25, 8:20 PM)
Low39 °F (Oct 28, 10:20 PM)53% (Oct 19, 2:20 PM)29.47 "Hg (Oct 21, 4:20 PM)
Average54 °F77%30.04 "Hg
* Reported Oct 16 6:20 AM — Oct 31 5:50 AM, Marl, Weather by CustomWeather, © 2014

Note: Actual official high and low records may vary slightly from our data, if they occured in-between our weather recording intervals... More about our weather records

Advertising

Marl weather history for previous 24 hours

 ConditionsComfort  
Time TempWeatherWind HumidityBarometerVisibility
5:50 AM
Oct 31
55 °FClear.16 mph77%30.18 "Hg10 mi
5:20 AM55 °FClear.14 mph77%30.18 "Hg10 mi
10:50 PM
Oct 30
57 °FClear.10 mph77%30.21 "Hg10 mi
10:20 PM55 °FClear.10 mph82%30.21 "Hg10 mi
9:50 PM55 °FClear.10 mph82%30.21 "Hg10 mi
9:20 PM57 °FClear.8 mph82%30.21 "Hg10 mi
8:50 PM57 °FClear.10 mph82%30.21 "Hg10 mi
8:20 PM57 °FClear.9 mph82%30.21 "Hg10 mi
7:50 PM57 °FClear.10 mph82%30.21 "Hg10 mi
7:20 PM57 °FClear.8 mph82%30.21 "Hg10 mi
6:50 PM57 °FClear.8 mph82%30.21 "Hg10 mi
6:20 PM57 °FClear.6 mph82%30.21 "Hg10 mi
5:50 PM57 °FClear.2 mph82%30.21 "Hg10 mi
5:20 PM57 °FClear.3 mph82%30.21 "Hg10 mi
4:50 PM57 °FSunny.3 mph82%30.21 "Hg10 mi
4:20 PM59 °FPassing clouds.5 mph77%30.21 "HgN/A
3:50 PM59 °FSunny.3 mph77%30.21 "Hg10 mi
3:20 PM59 °FScattered clouds.5 mph77%30.21 "HgN/A
2:50 PM59 °FPartly sunny.6 mph77%30.21 "HgN/A
2:20 PM57 °FPartly sunny.6 mph82%30.21 "HgN/A
1:50 PM57 °FBroken clouds.5 mph82%30.21 "HgN/A
1:20 PM57 °FPartly sunny.2 mph82%30.21 "HgN/A
12:50 PM57 °FPartly sunny.2 mph82%30.21 "HgN/A
12:20 PM57 °FPartly sunny.3 mph82%30.21 "HgN/A
11:50 AM57 °FBroken clouds.3 mph82%30.21 "HgN/A
11:20 AM55 °FBroken clouds.6 mph82%30.21 "HgN/A
10:50 AM55 °FPartly sunny.5 mph82%30.21 "Hg6 mi
10:20 AM54 °FBroken clouds.6 mph88%30.21 "Hg6 mi
9:50 AM54 °FPartly sunny.6 mph88%30.21 "Hg6 mi
9:20 AM52 °FPartly sunny.6 mph94%30.21 "Hg5 mi
8:50 AM52 °FPartly sunny.8 mph88%30.18 "Hg4 mi
8:20 AM52 °FFog.7 mph88%30.21 "Hg3 mi
7:50 AM52 °FFog.6 mph88%30.21 "Hg3 mi
7:20 AM50 °FFog.3 mph94%30.21 "Hg2 mi
6:50 AM50 °FLow clouds.5 mph94%30.18 "Hg4 mi
6:20 AM50 °FLow clouds.5 mph94%30.18 "Hg4 mi
Weather by CustomWeather, © 2014

See weather overviewHow to use our weather pages